Tracking 31030 objects as of 16-Jul-2025
HD Live streaming from Space Station
objects crossing your sky now

SRMSAT

Track SRMSAT now!
10-day predictions
SRMSAT is classified as:


NORAD ID: 37841
Int'l Code: 2011-058D
Perigee: 853.0 km
Apogee: 870.2 km
Inclination: 20.0 °
Period: 102.0 minutes
Semi major axis: 7232 km
RCS: 0.1933 m2 (medium)
Launch date: October 12, 2011
Source: India (IND)
Launch site: SRIHARIKOTA (SRI)

Uplink (MHz): 145.900
Downlink (MHz): 437.500
Beacon (MHz): 437.425
Mode: CW
Call sign:
Status: Inactive

Your satellite tracking list
Your tracking list is empty




NASA's NSSDC Master Catalog

Two Line Element Set (TLE):
1 37841U 11058D   25196.95380681  .00000359  00000-0  51263-4 0  9999
2 37841  19.9725 294.4384 0011868 104.4492  54.5648 14.11444505710256
Source of the keplerian elements: Caltech